Time,TemperatureF,DewpointF,PressureIn,WindDirection,WindDirectionDegrees,WindSpeedMPH,WindSpeedGustMPH,Humidity,HourlyPrecipIn,Conditions,Clouds,dailyrainin,SoftwareType,DateUTC
2013-01-28 00:00:00,45.5,37.0,29.86,SW,219,0.0,0.0,72,0.00,,,0.01,Wunderground v.1.15,2013-01-28 07:00:00,
2013-01-28 00:05:00,45.4,36.9,29.87,SW,219,0.0,0.0,72,0.00,,,0.00,Wunderground v.1.15,2013-01-28 07:05:00,
2013-01-28 00:15:00,45.4,37.2,29.87,SW,219,0.0,0.0,73,0.00,,,0.00,Wunderground v.1.15,2013-01-28 07:15:00,
2013-01-28 00:20:00,45.3,37.2,29.87,SW,219,0.0,0.0,73,0.00,,,0.00,Wunderground v.1.15,2013-01-28 07:20:00,
2013-01-28 00:25:00,45.2,37.1,29.87,SW,219,0.0,0.0,73,0.00,,,0.00,Wunderground v.1.15,2013-01-28 07:25:00,
2013-01-28 00:35:00,45.0,36.9,29.87,SW,219,0.0,0.0,73,0.00,,,0.00,Wunderground v.1.15,2013-01-28 07:35:00,
2013-01-28 00:40:00,45.0,36.9,29.87,SW,219,0.0,0.0,73,0.00,,,0.00,Wunderground v.1.15,2013-01-28 07:40:00,
2013-01-28 00:45:00,45.0,36.9,29.87,SW,219,0.0,0.0,73,0.00,,,0.00,Wunderground v.1.15,2013-01-28 07:45:00,
2013-01-28 00:55:00,44.9,36.8,29.86,SW,219,0.0,0.0,73,0.00,,,0.00,Wunderground v.1.15,2013-01-28 07:55:00,
2013-01-28 01:00:00,44.7,36.9,29.86,SW,219,0.0,0.0,74,0.00,,,0.00,Wunderground v.1.15,2013-01-28 08:00:00,
2013-01-28 01:05:00,44.6,36.8,29.85,SW,219,0.0,0.0,74,0.00,,,0.00,Wunderground v.1.15,2013-01-28 08:05:00,
2013-01-28 01:15:00,44.5,36.7,29.85,SW,219,0.0,0.0,74,0.00,,,0.00,Wunderground v.1.15,2013-01-28 08:15:00,
2013-01-28 01:20:00,44.4,36.6,29.86,SW,219,0.0,0.0,74,0.00,,,0.00,Wunderground v.1.15,2013-01-28 08:20:00,
2013-01-28 01:30:00,44.2,36.4,29.86,SW,219,0.0,0.0,74,0.00,,,0.00,Wunderground v.1.15,2013-01-28 08:30:00,
2013-01-28 01:35:00,44.1,36.3,29.87,SW,219,0.0,0.0,74,0.00,,,0.00,Wunderground v.1.15,2013-01-28 08:35:00,
2013-01-28 01:40:00,44.0,36.2,29.86,SW,219,0.0,0.0,74,0.00,,,0.00,Wunderground v.1.15,2013-01-28 08:40:00,
2013-01-28 01:45:00,43.8,36.0,29.87,SW,219,0.0,0.0,74,0.00,,,0.00,Wunderground v.1.15,2013-01-28 08:45:00,
2013-01-28 01:50:00,43.7,36.0,29.86,SW,219,0.0,0.0,74,0.00,,,0.00,Wunderground v.1.15,2013-01-28 08:50:00,
2013-01-28 02:00:00,43.3,35.9,29.86,SW,219,0.0,0.0,75,0.00,,,0.00,Wunderground v.1.15,2013-01-28 09:00:00,
2013-01-28 02:10:00,43.0,35.6,29.86,SW,219,0.0,0.0,75,0.00,,,0.00,Wunderground v.1.15,2013-01-28 09:10:00,
2013-01-28 02:15:00,42.8,35.4,29.85,SW,219,0.0,0.0,75,0.00,,,0.00,Wunderground v.1.15,2013-01-28 09:15:00,
2013-01-28 02:20:00,42.6,35.2,29.86,SW,219,0.0,0.0,75,0.00,,,0.00,Wunderground v.1.15,2013-01-28 09:20:00,
2013-01-28 02:25:00,42.5,35.5,29.86,SW,219,0.0,0.0,76,0.00,,,0.00,Wunderground v.1.15,2013-01-28 09:25:00,
2013-01-28 02:30:00,42.3,35.6,29.87,SW,219,0.0,0.0,77,0.00,,,0.00,Wunderground v.1.15,2013-01-28 09:30:00,
2013-01-28 02:35:00,42.2,35.5,29.87,SW,219,0.0,0.0,77,0.00,,,0.00,Wunderground v.1.15,2013-01-28 09:35:00,
2013-01-28 02:40:00,42.1,35.7,29.86,SW,219,0.0,0.0,78,0.00,,,0.00,Wunderground v.1.15,2013-01-28 09:40:00,
2013-01-28 02:45:00,42.1,35.7,29.86,SW,219,0.0,0.0,78,0.00,,,0.00,Wunderground v.1.15,2013-01-28 09:45:00,
2013-01-28 02:50:00,42.3,36.3,29.86,SW,219,0.0,0.0,79,0.00,,,0.00,Wunderground v.1.15,2013-01-28 09:50:00,
2013-01-28 03:00:00,42.5,36.4,29.85,SW,219,0.0,0.0,79,0.00,,,0.00,Wunderground v.1.15,2013-01-28 10:00:00,
2013-01-28 03:05:00,42.6,36.5,29.86,SW,219,0.0,0.0,79,0.00,,,0.00,Wunderground v.1.15,2013-01-28 10:05:00,
2013-01-28 03:15:00,42.8,36.7,29.86,SW,219,0.0,0.0,79,0.00,,,0.00,Wunderground v.1.15,2013-01-28 10:15:00,
2013-01-28 03:20:00,43.0,36.9,29.85,SW,218,0.0,0.0,79,0.00,,,0.00,Wunderground v.1.15,2013-01-28 10:20:00,
2013-01-28 03:25:00,43.1,37.0,29.85,SW,219,0.0,0.0,79,0.00,,,0.00,Wunderground v.1.15,2013-01-28 10:25:00,
2013-01-28 03:30:00,43.3,37.2,29.85,SW,219,0.0,0.0,79,0.00,,,0.00,Wunderground v.1.15,2013-01-28 10:30:00,
2013-01-28 03:35:00,43.4,37.3,29.86,SW,219,0.0,0.0,79,0.00,,,0.00,Wunderground v.1.15,2013-01-28 10:35:00,
2013-01-28 03:45:00,43.4,37.0,29.86,SW,218,0.0,0.0,78,0.00,,,0.00,Wunderground v.1.15,2013-01-28 10:45:00,
2013-01-28 03:50:00,43.4,36.7,29.86,SW,219,0.0,0.0,77,0.00,,,0.00,Wunderground v.1.15,2013-01-28 10:50:00,
2013-01-28 03:55:00,43.4,36.7,29.86,SW,218,0.0,0.0,77,0.00,,,0.00,Wunderground v.1.15,2013-01-28 10:55:00,
2013-01-28 04:00:00,43.3,36.6,29.85,SW,219,0.0,0.0,77,0.00,,,0.00,Wunderground v.1.15,2013-01-28 11:00:00,
2013-01-28 04:10:00,43.1,36.4,29.86,SW,218,0.0,0.0,77,0.00,,,0.00,Wunderground v.1.15,2013-01-28 11:10:00,
2013-01-28 04:15:00,43.0,36.3,29.86,SW,219,0.0,0.0,77,0.00,,,0.00,Wunderground v.1.15,2013-01-28 11:15:00,
2013-01-28 04:20:00,42.8,36.1,29.86,SW,218,0.0,0.0,77,0.00,,,0.00,Wunderground v.1.15,2013-01-28 11:20:00,
2013-01-28 04:25:00,42.7,36.0,29.86,SW,219,0.0,0.0,77,0.00,,,0.00,Wunderground v.1.15,2013-01-28 11:25:00,
2013-01-28 04:30:00,42.5,35.8,29.86,SW,219,0.0,0.0,77,0.00,,,0.00,Wunderground v.1.15,2013-01-28 11:30:00,
2013-01-28 04:35:00,42.4,36.0,29.86,SW,219,0.0,0.0,78,0.00,,,0.00,Wunderground v.1.15,2013-01-28 11:35:00,
2013-01-28 04:40:00,42.2,35.8,29.86,SW,219,0.0,0.0,78,0.00,,,0.00,Wunderground v.1.15,2013-01-28 11:40:00,
2013-01-28 04:45:00,42.2,35.8,29.86,SW,219,0.0,0.0,78,0.00,,,0.00,Wunderground v.1.15,2013-01-28 11:45:00,
2013-01-28 04:50:00,42.1,36.1,29.86,SW,218,0.0,0.0,79,0.00,,,0.00,Wunderground v.1.15,2013-01-28 11:50:00,
2013-01-28 04:55:00,42.0,36.0,29.86,SW,219,0.0,0.0,79,0.00,,,0.00,Wunderground v.1.15,2013-01-28 11:55:00,
2013-01-28 05:00:00,42.0,36.0,29.86,SW,218,0.0,0.0,79,0.00,,,0.00,Wunderground v.1.15,2013-01-28 12:00:00,
2013-01-28 05:05:00,41.9,35.9,29.87,SW,218,0.0,0.0,79,0.00,,,0.00,Wunderground v.1.15,2013-01-28 12:05:00,
2013-01-28 05:15:00,41.7,35.7,29.87,SW,218,0.0,0.0,79,0.00,,,0.00,Wunderground v.1.15,2013-01-28 12:15:00,
2013-01-28 05:20:00,41.6,35.6,29.86,SW,219,0.0,0.0,79,0.00,,,0.00,Wunderground v.1.15,2013-01-28 12:20:00,
2013-01-28 05:30:00,41.3,35.3,29.88,SW,219,0.0,0.0,79,0.00,,,0.00,Wunderground v.1.15,2013-01-28 12:30:00,
2013-01-28 05:35:00,41.2,35.5,29.87,SW,219,0.0,0.0,80,0.00,,,0.00,Wunderground v.1.15,2013-01-28 12:35:00,
2013-01-28 05:40:00,41.1,35.4,29.88,SW,219,0.0,0.0,80,0.00,,,0.00,Wunderground v.1.15,2013-01-28 12:40:00,
2013-01-28 05:45:00,41.1,35.4,29.88,SW,219,0.0,0.0,80,0.00,,,0.00,Wunderground v.1.15,2013-01-28 12:45:00,
2013-01-28 05:50:00,41.0,35.3,29.88,SW,218,0.0,0.0,80,0.00,,,0.00,Wunderground v.1.15,2013-01-28 12:50:00,
2013-01-28 05:55:00,40.9,35.5,29.88,SW,219,0.0,0.0,81,0.00,,,0.00,Wunderground v.1.15,2013-01-28 12:55:00,
2013-01-28 06:00:00,40.8,35.4,29.88,SW,219,0.0,0.0,81,0.00,,,0.00,Wunderground v.1.15,2013-01-28 13:00:00,
2013-01-28 06:10:00,40.8,35.7,29.90,SW,218,0.0,0.0,82,0.00,,,0.00,Wunderground v.1.15,2013-01-28 13:10:00,
2013-01-28 06:15:00,40.8,35.7,29.90,SW,219,0.0,0.0,82,0.00,,,0.00,Wunderground v.1.15,2013-01-28 13:15:00,
2013-01-28 06:20:00,40.9,35.8,29.90,SW,219,0.0,0.0,82,0.00,,,0.00,Wunderground v.1.15,2013-01-28 13:20:00,
2013-01-28 06:25:00,40.9,35.8,29.91,SW,218,0.0,0.0,82,0.00,,,0.00,Wunderground v.1.15,2013-01-28 13:25:00,
2013-01-28 06:30:00,41.0,35.9,29.91,SW,218,0.0,0.0,82,0.00,,,0.00,Wunderground v.1.15,2013-01-28 13:30:00,
2013-01-28 06:35:00,41.0,35.9,29.91,SW,218,0.0,0.0,82,0.00,,,0.00,Wunderground v.1.15,2013-01-28 13:35:00,
2013-01-28 06:40:00,41.0,35.9,29.91,SW,218,0.0,0.0,82,0.00,,,0.00,Wunderground v.1.15,2013-01-28 13:40:00,
2013-01-28 06:50:00,41.1,36.0,29.91,SSE,165,0.0,2.0,82,0.00,,,0.00,Wunderground v.1.15,2013-01-28 13:50:00,
2013-01-28 06:55:00,41.3,36.2,29.91,SSE,165,0.0,2.0,82,0.00,,,0.00,Wunderground v.1.15,2013-01-28 13:55:00,
2013-01-28 07:00:00,41.4,36.3,29.91,SSE,164,0.0,0.0,82,0.00,,,0.00,Wunderground v.1.15,2013-01-28 14:00:00,
2013-01-28 07:05:00,41.6,36.5,29.91,SSE,165,0.0,0.0,82,0.00,,,0.00,Wunderground v.1.15,2013-01-28 14:05:00,
2013-01-28 07:15:00,41.6,36.2,29.91,SSE,165,0.0,0.0,81,0.00,,,0.00,Wunderground v.1.15,2013-01-28 14:15:00,
2013-01-28 07:20:00,41.6,36.2,29.92,SSE,165,0.0,0.0,81,0.00,,,0.00,Wunderground v.1.15,2013-01-28 14:20:00,
2013-01-28 07:30:00,41.6,36.2,29.91,SSE,165,0.0,0.0,81,0.00,,,0.00,Wunderground v.1.15,2013-01-28 14:30:00,
2013-01-28 07:35:00,41.6,36.2,29.92,SSE,164,0.0,0.0,81,0.00,,,0.00,Wunderground v.1.15,2013-01-28 14:35:00,
2013-01-28 07:40:00,41.7,36.3,29.92,SSE,165,0.0,0.0,81,0.00,,,0.00,Wunderground v.1.15,2013-01-28 14:40:00,
2013-01-28 07:45:00,41.8,36.4,29.92,SSE,164,0.0,0.0,81,0.00,,,0.00,Wunderground v.1.15,2013-01-28 14:45:00,
2013-01-28 07:50:00,41.8,36.4,29.92,SSE,165,0.0,0.0,81,0.00,,,0.00,Wunderground v.1.15,2013-01-28 14:50:00,
2013-01-28 07:55:00,41.9,36.5,29.92,SSE,164,0.0,0.0,81,0.00,,,0.00,Wunderground v.1.15,2013-01-28 14:55:00,
2013-01-28 08:05:00,42.2,36.8,29.92,SSE,165,0.0,0.0,81,0.00,,,0.00,Wunderground v.1.15,2013-01-28 15:05:00,
2013-01-28 08:15:00,42.9,37.5,29.92,SSE,164,0.0,0.0,81,0.00,,,0.00,Wunderground v.1.15,2013-01-28 15:15:00,
2013-01-28 08:20:00,43.4,38.3,29.92,SSE,164,0.0,0.0,82,0.00,,,0.00,Wunderground v.1.15,2013-01-28 15:20:00,
2013-01-28 08:25:00,44.3,38.8,29.91,SSE,164,0.0,0.0,81,0.00,,,0.00,Wunderground v.1.15,2013-01-28 15:25:00,
2013-01-28 08:30:00,45.1,39.0,29.91,SSE,163,0.0,0.0,79,0.00,,,0.00,Wunderground v.1.15,2013-01-28 15:30:00,
2013-01-28 08:40:00,46.6,39.4,29.90,SSE,160,0.0,0.0,76,0.00,,,0.00,Wunderground v.1.15,2013-01-28 15:40:00,
2013-01-28 08:45:00,47.6,39.7,29.90,SSE,155,0.0,0.0,74,0.00,,,0.00,Wunderground v.1.15,2013-01-28 15:45:00,
2013-01-28 08:50:00,48.4,39.8,29.89,SSE,153,0.0,0.0,72,0.00,,,0.00,Wunderground v.1.15,2013-01-28 15:50:00,
2013-01-28 08:55:00,49.2,39.8,29.89,SE,146,0.0,0.0,70,0.00,,,0.00,Wunderground v.1.15,2013-01-28 15:55:00,
2013-01-28 09:00:00,50.1,40.3,29.88,SE,146,0.0,0.0,69,0.00,,,0.00,Wunderground v.1.15,2013-01-28 16:00:00,
2013-01-28 09:05:00,50.9,39.9,29.88,SSE,165,0.0,0.0,66,0.00,,,0.00,Wunderground v.1.15,2013-01-28 16:05:00,
2013-01-28 09:15:00,52.1,39.9,29.88,SSE,165,0.0,0.0,63,0.00,,,0.00,Wunderground v.1.15,2013-01-28 16:15:00,
2013-01-28 09:20:00,52.9,39.8,29.87,SW,234,0.0,1.0,61,0.00,,,0.00,Wunderground v.1.15,2013-01-28 16:20:00,
2013-01-28 09:30:00,53.9,39.9,29.87,SE,146,0.0,0.0,59,0.00,,,0.00,Wunderground v.1.15,2013-01-28 16:30:00,
2013-01-28 09:35:00,54.4,39.9,29.87,South,169,0.0,0.0,58,0.00,,,0.00,Wunderground v.1.15,2013-01-28 16:35:00,
2013-01-28 09:40:00,54.8,39.8,29.86,ESE,105,0.0,0.0,57,0.00,,,0.00,Wunderground v.1.15,2013-01-28 16:40:00,
2013-01-28 09:45:00,55.2,40.2,29.86,SSE,155,1.0,1.0,57,0.00,,,0.00,Wunderground v.1.15,2013-01-28 16:45:00,
2013-01-28 09:50:00,55.5,40.0,29.86,ESE,115,0.0,0.0,56,0.00,,,0.00,Wunderground v.1.15,2013-01-28 16:50:00,
2013-01-28 09:55:00,55.8,40.3,29.86,ESE,115,0.0,0.0,56,0.00,,,0.00,Wunderground v.1.15,2013-01-28 16:55:00,
2013-01-28 10:00:00,56.2,40.2,29.86,SE,142,0.0,0.0,55,0.00,,,0.00,Wunderground v.1.15,2013-01-28 17:00:00,
2013-01-28 10:05:00,56.7,40.2,29.87,SW,218,0.0,0.0,54,0.00,,,0.00,Wunderground v.1.15,2013-01-28 17:05:00,
2013-01-28 10:15:00,57.2,40.2,29.87,SSW,208,0.0,1.0,53,0.00,,,0.00,Wunderground v.1.15,2013-01-28 17:15:00,
2013-01-28 10:25:00,57.6,40.6,29.87,ESE,113,1.0,1.0,53,0.00,,,0.00,Wunderground v.1.15,2013-01-28 17:25:00,
2013-01-28 10:30:00,57.9,40.4,29.87,SW,234,1.0,1.0,52,0.00,,,0.00,Wunderground v.1.15,2013-01-28 17:30:00,
2013-01-28 10:35:00,58.0,40.0,29.87,East,99,1.0,1.0,51,0.00,,,0.00,Wunderground v.1.15,2013-01-28 17:35:00,
2013-01-28 10:40:00,58.2,40.1,29.87,WSW,255,1.0,1.0,51,0.00,,,0.00,Wunderground v.1.15,2013-01-28 17:40:00,
2013-01-28 10:45:00,58.5,40.4,29.85,WSW,240,1.0,1.0,51,0.00,,,0.00,Wunderground v.1.15,2013-01-28 17:45:00,
2013-01-28 10:50:00,58.9,39.8,29.85,SSW,202,1.0,1.0,49,0.00,,,0.00,Wunderground v.1.15,2013-01-28 17:50:00,
2013-01-28 10:55:00,59.0,39.3,29.85,SW,228,1.0,4.0,48,0.00,,,0.00,Wunderground v.1.15,2013-01-28 17:55:00,
2013-01-28 11:00:00,59.0,37.1,29.85,West,261,3.0,12.0,44,0.00,,,0.00,Wunderground v.1.15,2013-01-28 18:00:00,
2013-01-28 11:05:00,59.0,36.5,29.86,West,277,6.0,12.0,43,0.00,,,0.00,Wunderground v.1.15,2013-01-28 18:05:00,
2013-01-28 11:15:00,59.5,35.8,29.86,WSW,251,4.0,6.0,41,0.00,,,0.00,Wunderground v.1.15,2013-01-28 18:15:00,
2013-01-28 11:25:00,59.7,35.3,29.84,East,98,6.0,6.0,40,0.00,,,0.00,Wunderground v.1.15,2013-01-28 18:25:00,
2013-01-28 11:30:00,60.1,33.7,29.84,WSW,240,5.0,5.0,37,0.00,,,0.00,Wunderground v.1.15,2013-01-28 18:30:00,
2013-01-28 11:35:00,60.3,34.6,29.84,West,265,5.0,5.0,38,0.00,,,0.00,Wunderground v.1.15,2013-01-28 18:35:00,
2013-01-28 11:40:00,60.1,33.0,29.84,WSW,238,5.0,6.0,36,0.00,,,0.00,Wunderground v.1.15,2013-01-28 18:40:00,
2013-01-28 11:45:00,59.3,33.0,29.84,West,265,6.0,6.0,37,0.00,,,0.00,Wunderground v.1.15,2013-01-28 18:45:00,
2013-01-28 11:50:00,58.9,32.7,29.84,WSW,252,6.0,7.0,37,0.00,,,0.00,Wunderground v.1.15,2013-01-28 18:50:00,
2013-01-28 11:55:00,58.2,32.7,29.84,WSW,257,6.0,7.0,38,0.00,,,0.00,Wunderground v.1.15,2013-01-28 18:55:00,
2013-01-28 12:00:00,58.4,34.2,29.83,WSW,249,5.0,5.0,40,0.00,,,0.00,Wunderground v.1.15,2013-01-28 19:00:00,
2013-01-28 12:10:00,60.2,34.5,29.83,WSW,248,3.0,3.0,38,0.00,,,0.00,Wunderground v.1.15,2013-01-28 19:10:00,
2013-01-28 12:15:00,60.3,34.6,29.82,WSW,242,4.0,6.0,38,0.00,,,0.00,Wunderground v.1.15,2013-01-28 19:15:00,
2013-01-28 12:20:00,60.1,34.4,29.82,WSW,248,5.0,5.0,38,0.00,,,0.00,Wunderground v.1.15,2013-01-28 19:20:00,
2013-01-28 12:25:00,60.0,34.3,29.82,SW,219,4.0,7.0,38,0.00,,,0.00,Wunderground v.1.15,2013-01-28 19:25:00,
2013-01-28 12:30:00,59.6,33.9,29.81,West,261,4.0,4.0,38,0.00,,,0.00,Wunderground v.1.15,2013-01-28 19:30:00,
2013-01-28 12:35:00,59.3,33.7,29.81,SW,236,5.0,6.0,38,0.00,,,0.00,Wunderground v.1.15,2013-01-28 19:35:00,
2013-01-28 12:40:00,59.2,33.6,29.81,WSW,254,5.0,12.0,38,0.00,,,0.00,Wunderground v.1.15,2013-01-28 19:40:00,
2013-01-28 12:45:00,59.5,33.2,29.80,WSW,242,5.0,12.0,37,0.00,,,0.00,Wunderground v.1.15,2013-01-28 19:45:00,
2013-01-28 12:55:00,59.0,32.7,29.80,SW,227,5.0,7.0,37,0.00,,,0.00,Wunderground v.1.15,2013-01-28 19:55:00,
2013-01-28 13:00:00,59.0,33.4,29.80,WSW,254,5.0,5.0,38,0.00,,,0.00,Wunderground v.1.15,2013-01-28 20:00:00,
2013-01-28 13:10:00,59.5,33.2,29.80,North,360,5.0,5.0,37,0.00,,,0.00,Wunderground v.1.15,2013-01-28 20:10:00,
2013-01-28 13:15:00,59.9,33.5,29.79,SW,236,4.0,6.0,37,0.00,,,0.00,Wunderground v.1.15,2013-01-28 20:15:00,
2013-01-28 13:20:00,60.7,33.6,29.77,West,262,5.0,5.0,36,0.00,,,0.00,Wunderground v.1.15,2013-01-28 20:20:00,
2013-01-28 13:30:00,62.3,33.6,29.77,NNW,344,5.0,9.0,34,0.00,,,0.00,Wunderground v.1.15,2013-01-28 20:30:00,
2013-01-28 13:35:00,62.5,33.7,29.77,West,271,5.0,9.0,34,0.00,,,0.00,Wunderground v.1.15,2013-01-28 20:35:00,
2013-01-28 13:40:00,62.0,34.7,29.77,SW,234,5.0,5.0,36,0.00,,,0.00,Wunderground v.1.15,2013-01-28 20:40:00,
2013-01-28 13:45:00,61.8,34.5,29.77,WSW,254,4.0,8.0,36,0.00,,,0.00,Wunderground v.1.15,2013-01-28 20:45:00,
2013-01-28 13:50:00,62.0,34.0,29.76,ENE,78,4.0,4.0,35,0.00,,,0.00,Wunderground v.1.15,2013-01-28 20:50:00,
2013-01-28 13:55:00,62.4,34.4,29.76,SW,214,5.0,5.0,35,0.00,,,0.00,Wunderground v.1.15,2013-01-28 20:55:00,
2013-01-28 14:00:00,62.8,34.0,29.75,East,98,4.0,6.0,34,0.00,,,0.00,Wunderground v.1.15,2013-01-28 21:00:00,
2013-01-28 14:05:00,63.0,34.2,29.75,WSW,238,4.0,6.0,34,0.00,,,0.00,Wunderground v.1.15,2013-01-28 21:05:00,
2013-01-28 14:15:00,63.0,34.2,29.74,SW,234,5.0,13.0,34,0.00,,,0.00,Wunderground v.1.15,2013-01-28 21:15:00,
2013-01-28 14:20:00,62.8,34.0,29.74,NW,323,6.0,6.0,34,0.00,,,0.00,Wunderground v.1.15,2013-01-28 21:20:00,
2013-01-28 14:25:00,62.7,33.9,29.74,East,101,6.0,6.0,34,0.00,,,0.00,Wunderground v.1.15,2013-01-28 21:25:00,
2013-01-28 14:30:00,62.6,33.8,29.74,SW,234,5.0,5.0,34,0.00,,,0.00,Wunderground v.1.15,2013-01-28 21:30:00,
2013-01-28 14:35:00,62.6,33.8,29.74,SE,132,4.0,5.0,34,0.00,,,0.00,Wunderground v.1.15,2013-01-28 21:35:00,
2013-01-28 14:40:00,62.8,34.0,29.74,WSW,249,2.0,4.0,34,0.00,,,0.00,Wunderground v.1.15,2013-01-28 21:40:00,
2013-01-28 14:45:00,62.9,34.1,29.74,SW,218,2.0,5.0,34,0.00,,,0.00,Wunderground v.1.15,2013-01-28 21:45:00,
2013-01-28 14:50:00,62.7,33.9,29.74,SW,235,3.0,3.0,34,0.00,,,0.00,Wunderground v.1.15,2013-01-28 21:50:00,
2013-01-28 15:00:00,62.2,34.2,29.75,West,269,4.0,4.0,35,0.00,,,0.00,Wunderground v.1.15,2013-01-28 22:00:00,
2013-01-28 15:05:00,62.4,34.4,29.75,WSW,254,3.0,10.0,35,0.00,,,0.00,Wunderground v.1.15,2013-01-28 22:05:00,
2013-01-28 15:15:00,62.6,33.8,29.73,West,267,5.0,7.0,34,0.00,,,0.00,Wunderground v.1.15,2013-01-28 22:15:00,
2013-01-28 15:20:00,62.6,33.8,29.73,South,186,6.0,6.0,34,0.00,,,0.00,Wunderground v.1.15,2013-01-28 22:20:00,
2013-01-28 15:25:00,62.7,34.6,29.73,West,260,5.0,7.0,35,0.00,,,0.00,Wunderground v.1.15,2013-01-28 22:25:00,
2013-01-28 15:30:00,62.6,34.5,29.73,WSW,241,5.0,5.0,35,0.00,,,0.00,Wunderground v.1.15,2013-01-28 22:30:00,
2013-01-28 15:35:00,62.4,34.4,29.74,WSW,255,6.0,9.0,35,0.00,,,0.00,Wunderground v.1.15,2013-01-28 22:35:00,
2013-01-28 15:40:00,61.8,33.8,29.74,West,267,6.0,6.0,35,0.00,,,0.00,Wunderground v.1.15,2013-01-28 22:40:00,
2013-01-28 15:45:00,61.3,34.1,29.74,WSW,238,5.0,6.0,36,0.00,,,0.00,Wunderground v.1.15,2013-01-28 22:45:00,
2013-01-28 15:55:00,60.5,33.4,29.73,West,262,4.0,4.0,36,0.00,,,0.00,Wunderground v.1.15,2013-01-28 22:55:00,
2013-01-28 16:00:00,60.2,33.8,29.74,SW,230,3.0,8.0,37,0.00,,,0.00,Wunderground v.1.15,2013-01-28 23:00:00,
2013-01-28 16:05:00,60.1,33.7,29.74,West,271,3.0,8.0,37,0.00,,,0.00,Wunderground v.1.15,2013-01-28 23:05:00,
2013-01-28 16:15:00,60.0,32.9,29.74,WSW,239,3.0,4.0,36,0.00,,,0.00,Wunderground v.1.15,2013-01-28 23:15:00,
2013-01-28 16:20:00,59.9,32.9,29.74,WSW,252,4.0,4.0,36,0.00,,,0.00,Wunderground v.1.15,2013-01-28 23:20:00,
2013-01-28 16:25:00,59.7,33.4,29.74,SW,229,4.0,4.0,37,0.00,,,0.00,Wunderground v.1.15,2013-01-28 23:25:00,
2013-01-28 16:35:00,59.7,32.0,29.73,East,87,3.0,3.0,35,0.00,,,0.00,Wunderground v.1.15,2013-01-28 23:35:00,
2013-01-28 16:40:00,59.9,31.4,29.73,SSE,165,3.0,5.0,34,0.00,,,0.00,Wunderground v.1.15,2013-01-28 23:40:00,
2013-01-28 16:45:00,60.0,30.8,29.73,WNW,285,6.0,6.0,33,0.00,,,0.00,Wunderground v.1.15,2013-01-28 23:45:00,
2013-01-28 16:55:00,59.9,30.7,29.73,South,180,6.0,6.0,33,0.00,,,0.00,Wunderground v.1.15,2013-01-28 23:55:00,
2013-01-28 17:00:00,59.7,30.5,29.73,West,278,7.0,7.0,33,0.00,,,0.00,Wunderground v.1.15,2013-01-29 00:00:00,
2013-01-28 17:05:00,59.5,30.3,29.74,WNW,283,6.0,7.0,33,0.00,,,0.00,Wunderground v.1.15,2013-01-29 00:05:00,
2013-01-28 17:15:00,59.0,29.9,29.74,West,265,7.0,13.0,33,0.00,,,0.00,Wunderground v.1.15,2013-01-29 00:15:00,
2013-01-28 17:25:00,58.8,30.5,29.74,WSW,242,6.0,6.0,34,0.00,,,0.00,Wunderground v.1.15,2013-01-29 00:25:00,
2013-01-28 17:35:00,58.3,30.0,29.75,WSW,246,6.0,10.0,34,0.00,,,0.00,Wunderground v.1.15,2013-01-29 00:35:00,
2013-01-28 17:40:00,58.1,30.6,29.75,SW,218,7.0,7.0,35,0.00,,,0.00,Wunderground v.1.15,2013-01-29 00:40:00,
2013-01-28 17:45:00,57.9,30.4,29.75,SW,221,7.0,7.0,35,0.00,,,0.00,Wunderground v.1.15,2013-01-29 00:45:00,
2013-01-28 17:50:00,57.7,30.2,29.75,West,275,6.0,6.0,35,0.00,,,0.00,Wunderground v.1.15,2013-01-29 00:50:00,
2013-01-28 18:00:00,57.2,30.5,29.75,WSW,242,4.0,4.0,36,0.00,,,0.00,Wunderground v.1.15,2013-01-29 01:00:00,
2013-01-28 18:05:00,56.9,30.2,29.75,WSW,250,4.0,4.0,36,0.00,,,0.00,Wunderground v.1.15,2013-01-29 01:05:00,
2013-01-28 18:15:00,56.5,30.5,29.75,WSW,237,4.0,4.0,37,0.00,,,0.00,Wunderground v.1.15,2013-01-29 01:15:00,
2013-01-28 18:20:00,56.3,30.3,29.76,WSW,245,3.0,3.0,37,0.00,,,0.00,Wunderground v.1.15,2013-01-29 01:20:00,
2013-01-28 18:25:00,56.1,30.8,29.77,SW,216,2.0,3.0,38,0.00,,,0.00,Wunderground v.1.15,2013-01-29 01:25:00,
2013-01-28 18:35:00,55.7,30.5,29.77,West,274,1.0,1.0,38,0.00,,,0.00,Wunderground v.1.15,2013-01-29 01:35:00,
2013-01-28 18:45:00,55.4,30.8,29.78,West,281,1.0,2.0,39,0.00,,,0.00,Wunderground v.1.15,2013-01-29 01:45:00,
2013-01-28 18:50:00,55.2,31.3,29.78,NW,309,1.0,1.0,40,0.00,,,0.00,Wunderground v.1.15,2013-01-29 01:50:00,
2013-01-28 18:55:00,54.8,31.5,29.78,West,262,1.0,1.0,41,0.00,,,0.00,Wunderground v.1.15,2013-01-29 01:55:00,
2013-01-28 19:00:00,54.4,31.8,29.79,West,269,1.0,1.0,42,0.00,,,0.00,Wunderground v.1.15,2013-01-29 02:00:00,
2013-01-28 19:05:00,54.0,32.0,29.78,West,277,2.0,6.0,43,0.00,,,0.00,Wunderground v.1.15,2013-01-29 02:05:00,
2013-01-28 19:15:00,53.3,32.5,29.79,West,264,3.0,3.0,45,0.00,,,0.00,Wunderground v.1.15,2013-01-29 02:15:00,
2013-01-28 19:20:00,52.9,32.7,29.78,West,269,2.0,6.0,46,0.00,,,0.00,Wunderground v.1.15,2013-01-29 02:20:00,
2013-01-28 19:25:00,52.6,32.4,29.79,WSW,258,3.0,6.0,46,0.00,,,0.00,Wunderground v.1.15,2013-01-29 02:25:00,
2013-01-28 19:30:00,52.3,32.6,29.79,WNW,294,4.0,4.0,47,0.00,,,0.00,Wunderground v.1.15,2013-01-29 02:30:00,
2013-01-28 19:40:00,51.8,32.7,29.79,SW,225,2.0,2.0,48,0.00,,,0.00,Wunderground v.1.15,2013-01-29 02:40:00,
2013-01-28 19:50:00,51.4,33.4,29.81,West,281,1.0,1.0,50,0.00,,,0.00,Wunderground v.1.15,2013-01-29 02:50:00,
2013-01-28 19:55:00,51.2,34.2,29.81,West,268,1.0,1.0,52,0.00,,,0.00,Wunderground v.1.15,2013-01-29 02:55:00,
2013-01-28 20:00:00,51.0,34.0,29.81,WSW,248,1.0,1.0,52,0.00,,,0.00,Wunderground v.1.15,2013-01-29 03:00:00,
2013-01-28 20:05:00,50.8,34.3,29.77,WNW,293,0.0,1.0,53,0.00,,,0.00,Wunderground v.1.15,2013-01-29 03:05:00,
2013-01-28 20:15:00,50.4,34.4,29.77,West,264,0.0,0.0,54,0.00,,,0.00,Wunderground v.1.15,2013-01-29 03:15:00,
2013-01-28 20:20:00,50.2,34.6,29.77,WSW,253,0.0,2.0,55,0.00,,,0.00,Wunderground v.1.15,2013-01-29 03:20:00,
2013-01-28 20:25:00,50.0,34.5,29.77,North,9,0.0,2.0,55,0.00,,,0.00,Wunderground v.1.15,2013-01-29 03:25:00,
2013-01-28 20:30:00,49.9,34.4,29.77,SW,220,0.0,0.0,55,0.00,,,0.00,Wunderground v.1.15,2013-01-29 03:30:00,
2013-01-28 20:40:00,49.6,34.1,29.77,WSW,254,0.0,0.0,55,0.00,,,0.00,Wunderground v.1.15,2013-01-29 03:40:00,
2013-01-28 20:50:00,49.4,34.3,29.78,WSW,250,0.0,0.0,56,0.00,,,0.00,Wunderground v.1.15,2013-01-29 03:50:00,
2013-01-28 20:55:00,49.3,34.3,29.78,West,267,0.0,0.0,56,0.00,,,0.00,Wunderground v.1.15,2013-01-29 03:55:00,
2013-01-28 21:00:00,49.2,34.2,29.78,WSW,238,0.0,0.0,56,0.00,,,0.00,Wunderground v.1.15,2013-01-29 04:00:00,
2013-01-28 21:05:00,49.1,34.5,29.75,WSW,238,0.0,0.0,57,0.00,,,0.00,Wunderground v.1.15,2013-01-29 04:05:00,
2013-01-28 21:15:00,48.9,34.3,29.76,SSE,159,0.0,0.0,57,0.00,,,0.00,Wunderground v.1.15,2013-01-29 04:15:00,
2013-01-28 21:25:00,48.7,34.1,29.75,SSE,157,0.0,0.0,57,0.00,,,0.00,Wunderground v.1.15,2013-01-29 04:25:00,
2013-01-28 21:30:00,48.6,34.0,29.75,South,179,0.0,0.0,57,0.00,,,0.00,Wunderground v.1.15,2013-01-29 04:30:00,
2013-01-28 21:35:00,48.5,33.9,29.75,SSW,211,0.0,0.0,57,0.00,,,0.00,Wunderground v.1.15,2013-01-29 04:35:00,
2013-01-28 21:45:00,48.2,33.7,29.75,SE,126,0.0,0.0,57,0.00,,,0.00,Wunderground v.1.15,2013-01-29 04:45:00,
2013-01-28 21:50:00,48.1,33.6,29.75,SE,133,0.0,0.0,57,0.00,,,0.00,Wunderground v.1.15,2013-01-29 04:50:00,
2013-01-28 22:05:00,47.8,33.7,29.74,West,277,0.0,0.0,58,0.00,,,0.00,Wunderground v.1.15,2013-01-29 05:05:00,
2013-01-28 22:15:00,47.6,34.0,29.74,WSW,251,0.0,0.0,59,0.00,,,0.00,Wunderground v.1.15,2013-01-29 05:15:00,
2013-01-28 22:20:00,47.4,33.8,29.74,WSW,252,0.0,0.0,59,0.00,,,0.00,Wunderground v.1.15,2013-01-29 05:20:00,
2013-01-28 22:25:00,47.2,33.6,29.75,West,265,0.0,0.0,59,0.00,,,0.00,Wunderground v.1.15,2013-01-29 05:25:00,
2013-01-28 22:35:00,46.8,33.6,29.75,WSW,248,0.0,0.0,60,0.00,,,0.00,Wunderground v.1.15,2013-01-29 05:35:00,
2013-01-28 22:40:00,46.6,33.9,29.75,WSW,246,1.0,1.0,61,0.00,,,0.00,Wunderground v.1.15,2013-01-29 05:40:00,
2013-01-28 22:50:00,46.2,33.5,29.76,West,267,0.0,0.0,61,0.00,,,0.00,Wunderground v.1.15,2013-01-29 05:50:00,
2013-01-28 22:55:00,46.0,33.3,29.76,NW,306,0.0,0.0,61,0.00,,,0.00,Wunderground v.1.15,2013-01-29 05:55:00,
2013-01-28 23:00:00,45.9,33.2,29.76,WNW,294,0.0,0.0,61,0.00,,,0.00,Wunderground v.1.15,2013-01-29 06:00:00,
2013-01-28 23:05:00,45.7,33.0,29.76,NW,305,0.0,0.0,61,0.00,,,0.00,Wunderground v.1.15,2013-01-29 06:05:00,
2013-01-28 23:15:00,45.5,32.8,29.76,WNW,295,0.0,0.0,61,0.00,,,0.00,Wunderground v.1.15,2013-01-29 06:15:00,
2013-01-28 23:20:00,45.4,32.7,29.77,WNW,302,0.0,0.0,61,0.00,,,0.00,Wunderground v.1.15,2013-01-29 06:20:00,
2013-01-28 23:25:00,45.2,32.5,29.78,West,263,0.0,0.0,61,0.00,,,0.00,Wunderground v.1.15,2013-01-29 06:25:00,
2013-01-28 23:30:00,45.0,31.9,29.77,West,265,1.0,1.0,60,0.00,,,0.00,Wunderground v.1.15,2013-01-29 06:30:00,
2013-01-28 23:35:00,44.8,31.8,29.77,West,274,2.0,7.0,60,0.00,,,0.00,Wunderground v.1.15,2013-01-29 06:35:00,
2013-01-28 23:45:00,44.5,31.5,29.77,WSW,257,1.0,2.0,60,0.00,,,0.00,Wunderground v.1.15,2013-01-29 06:45:00,
2013-01-28 23:55:00,44.2,31.2,29.77,West,271,0.0,0.0,60,0.00,,,0.00,Wunderground v.1.15,2013-01-29 06:55:00,